This is the latest recevied weather packets stored in our database for station/object KE8WMS. If no packets are shown the sender has not sent any weather packets the latest 10 day(s).
| Time | Temp. | Humidity | Pressure | Rain* | Wind** | Luminosity | Snow |
|---|---|---|---|---|---|---|---|
| 1787769699 | 26.11° C | 63% | 1010.4 hPa | 0 mm | - | 248 W/m² | - |
| 1787769398 | 26.11° C | 64% | 1010.5 hPa | 0 mm | - | 344 W/m² | - |
| 1787769093 | 26.11° C | 62% | 1010.8 hPa | 0 mm | - | 237 W/m² | - |
| 1787768788 | 26.11° C | 60% | 1010.8 hPa | 0 mm | - | 204 W/m² | - |
| 1787768484 | 26.11° C | 62% | 1011 hPa | 0 mm | - | 406 W/m² | - |
| 1787768180 | 26.11° C | 63% | 1010.9 hPa | 0 mm | - | 331 W/m² | - |
| 1787767876 | 26.11° C | 60% | 1011.2 hPa | 0 mm | - | 219 W/m² | - |
| 1787767571 | 26.67° C | 59% | 1011.3 hPa | 0 mm | - | 201 W/m² | - |
| 1787767270 | 26.67° C | 62% | 1011.3 hPa | 0 mm | - | 451 W/m² | - |
| 1787766968 | 26.67° C | 62% | 1011.1 hPa | 0 mm | - | 508 W/m² | - |
| 1787766663 | 27.22° C | 58% | 1011.3 hPa | 0 mm | - | 370 W/m² | - |
| 1787766362 | 27.78° C | 58% | 1011.3 hPa | 0 mm | - | 583 W/m² | - |
| 1787766062 | 27.22° C | 59% | 1011.4 hPa | 0 mm | - | 776 W/m² | - |
| 1787765759 | 26.67° C | 58% | 1011.6 hPa | 0 mm | - | 819 W/m² | - |
| 1787765454 | 26.11° C | 59% | 1011.6 hPa | 0 mm | - | 744 W/m² | - |
| 1787765153 | 25.56° C | 62% | 1011.6 hPa | 0 mm | - | 380 W/m² | - |
| 1787764848 | 25.56° C | 61% | 1011.7 hPa | 0 mm | - | 307 W/m² | - |
| 1787764543 | 26.11° C | 62% | 1011.7 hPa | 0 mm | - | 544 W/m² | - |
| 1787764238 | 25.56° C | 62% | 1011.8 hPa | 0 mm | - | 561 W/m² | - |
| 1787763934 | 25.56° C | 62% | 1011.9 hPa | 0 mm | - | 290 W/m² | - |
| 1787763630 | 25.56° C | 64% | 1011.9 hPa | 0 mm | - | 642 W/m² | - |
| 1787763325 | 26.11° C | 61% | 1012 hPa | 0 mm | - | 756 W/m² | - |
| 1787763024 | 26.67° C | 65% | 1012.1 hPa | 0 mm | - | 750 W/m² | - |
| 1787762719 | 26.67° C | 61% | 1012.1 hPa | 0 mm | - | 713 W/m² | - |
| 1787762418 | 26.11° C | 60% | 1012.3 hPa | 0 mm | - | 677 W/m² | - |
* Rain latest hour (hover to see other rain measurements)
** Current wind speed in m/s (hover to see current wind gust speed)